Tracking 31027 objects as of 19-Jul-2025
HD Live streaming from Space Station
objects crossing your sky now

DELTA 1 DEB

Track DELTA 1 DEB now!
10-day predictions


NORAD ID: 12185
Int'l Code: 1978-026AA
Perigee: 778.5 km
Apogee: 910.0 km
Inclination: 99.2 °
Period: 101.7 minutes
Semi major axis: 7215 km
RCS: 0.0609 m2 (small)
Launch date: March 5, 1978
Source: United States (US)
Launch site: AIR FORCE WESTERN TEST RANGE (AFWTR)

Note: This is SATELLITE DEBRIS
Your satellite tracking list
FLOCK 4X 28
Track 1 satellite(s)




NASA's NSSDC Master Catalog

Two Line Element Set (TLE):
1 12185U 78026AA  25199.53629280  .00000557  00000-0  29122-3 0  9997
2 12185  99.2153 173.0728 0091111 157.6225 323.4488 14.16537802282086
Source of the keplerian elements: AFSPC